EW5800 Weather Reports


Display with metric or nautical units.
time (UTC)temp
F
wind
direction
speed
MPH
gust
MPH
rain 1hr
in
rain 24hr
in
rain mn
in
humidity
%
barometer
mb
20260510014544 68 352 0.0 2.0 0.00 0.00 0.00 52 1015.5
20260510013042 69 82 0.0 0.0 0.00 0.00 0.00 52 1015.5
20260510011541 69 136 0.0 0.0 0.00 0.00 0.00 52 1015.8
20260510010040 70 158 0.0 0.0 0.00 0.00 0.00 48 1016.2
20260510004537 70 169 0.0 0.0 0.00 0.00 0.00 48 1016.4
20260510003037 71 64 0.0 1.0 0.00 0.00 0.00 46 1016.5
20260510001534 73 191 0.0 1.0 0.00 0.00 0.00 46 1016.7
20260510000036 72 328 0.0 1.0 0.00 0.00 0.00 48 1016.9
20260509234539 73 148 0.0 1.0 0.00 0.00 0.00 46 1017.2
20260509233018 71 61 0.0 1.0 0.00 0.00 0.00 48 1017.5
20260509231518 72 230 1.0 6.0 0.00 0.00 0.00 46 1017.8
20260509230013 70 119 0.0 4.0 0.00 0.00 0.00 49 1018.1
20260509224603 72 217 0.0 2.0 0.00 0.00 0.00 48 1018.2
20260509224526 72 146 0.0 2.0 0.00 0.00 0.00 48 1018.3
20260509223102 70 232 0.0 3.0 0.00 0.00 0.00 51 1018.5
20260509221534 69 322 0.0 7.0 0.00 0.00 0.00 54 1018.6
20260509220032 70 80 0.0 3.0 0.00 0.00 0.00 53 1018.9
20260509214543 70 115 0.0 4.0 0.00 0.00 0.00 51 1018.9
20260509213029 71 188 1.0 4.0 0.00 0.00 0.00 48 1019.0
20260509211527 70 111 0.0 3.0 0.00 0.00 0.00 51 1019.1
20260509210026 69 301 0.0 3.0 0.00 0.00 0.00 53 1019.1
20260509204524 69 311 0.0 2.0 0.00 0.00 0.00 55 1019.3
20260509203026 68 48 0.0 4.0 0.00 0.00 0.00 53 1019.5
20260509201518 69 333 0.0 2.0 0.00 0.00 0.00 52 1019.6
20260509200016 68 319 0.0 4.0 0.00 0.00 0.00 53 1019.8
20260509194517 70 53 0.0 3.0 0.00 0.00 0.00 51 1019.8
20260509193016 71 288 0.0 4.0 0.00 0.00 0.00 49 1020.0
20260509191510 70 41 0.0 2.0 0.00 0.00 0.00 48 1020.0
20260509190010 67 8 0.0 3.0 0.00 0.00 0.00 54 1020.4
20260509184518 67 349 0.0 2.0 0.00 0.00 0.00 51 1020.5
20260509183007 70 60 1.0 4.0 0.00 0.00 0.00 48 1020.5
20260509181503 69 86 0.0 6.0 0.00 0.00 0.00 50 1020.8
20260509180116 68 127 0.0 3.0 0.00 0.00 0.00 53 1020.8
20260509174600 68 47 1.0 4.0 0.00 0.00 0.00 53 1020.8
20260509173109 66 123 0.0 3.0 0.00 0.00 0.00 56 1020.8
20260509171554 66 146 0.0 2.0 0.00 0.00 0.00 57 1021.0
20260509170053 63 193 0.0 2.0 0.00 0.00 0.00 62 1021.2
20260509164548 65 74 0.0 3.0 0.00 0.00 0.00 60 1021.2
20260509163044 63 149 0.0 1.0 0.00 0.00 0.00 63 1021.4
20260509161547 62 162 0.0 0.0 0.00 0.00 0.00 67 1021.5
20260509160037 59 21 0.0 2.0 0.00 0.00 0.00 70 1021.7
20260509154531 58 320 0.0 1.0 0.00 0.00 0.00 71 1021.9
20260509153032 57 198 0.0 1.0 0.00 0.00 0.00 75 1021.9
20260509151539 57 73 0.0 1.0 0.00 0.00 0.00 76 1022.0
20260509150022 56 80 0.0 1.0 0.00 0.00 0.00 76 1022.1
20260509144520 55 56 0.0 1.0 0.00 0.00 0.00 77 1022.1
20260509143024 55 70 0.0 0.0 0.00 0.00 0.00 78 1022.1
20260509141534 54 56 0.0 0.0 0.00 0.00 0.00 79 1022.1
20260509140014 54 56 0.0 1.0 0.00 0.00 0.00 78 1022.1
20260509134526 53 354 0.0 1.0 0.00 0.00 0.00 79 1022.0
20260509133018 53 156 0.0 0.0 0.00 0.00 0.00 80 1022.1
20260509131506 52 152 0.0 0.0 0.00 0.00 0.00 81 1022.1
20260509130004 52 152 0.0 0.0 0.00 0.00 0.00 82 1022.0
20260509124547 52 152 0.0 0.0 0.00 0.00 0.00 82 1022.0
20260509123045 52 152 0.0 0.0 0.00 0.00 0.00 82 1022.0
20260509121548 52 141 0.0 0.0 0.00 0.00 0.00 81 1022.0
20260509120038 52 141 0.0 0.0 0.00 0.00 0.00 82 1022.1
20260509114638 52 63 0.0 0.0 0.00 0.00 0.00 81 1022.1
20260509113038 52 63 0.0 0.0 0.00 0.00 0.00 82 1022.1
20260509111535 52 63 0.0 0.0 0.00 0.00 0.00 83 1022.1
20260509110033 52 63 0.0 0.0 0.00 0.00 0.00 83 1022.1
20260509104536 52 63 0.0 0.0 0.00 0.00 0.00 83 1022.0
20260509103029 51 62 0.0 0.0 0.00 0.00 0.00 84 1021.9
20260509101533 51 62 0.0 0.0 0.00 0.00 0.00 84 1021.9
20260509100029 51 63 0.0 0.0 0.00 0.00 0.00 83 1021.8
20260509094533 51 62 0.0 0.0 0.00 0.00 0.00 85 1021.9
20260509093028 51 62 0.0 0.0 0.00 0.00 0.00 84 1021.8
20260509091530 50 62 0.0 0.0 0.00 0.00 0.00 83 1021.8
20260509090022 50 62 0.0 0.0 0.00 0.00 0.00 84 1021.8
20260509084514 50 63 0.0 0.0 0.00 0.00 0.00 82 1021.8
20260509083013 50 62 0.0 0.0 0.00 0.00 0.00 81 1021.8
20260509081553 51 62 0.0 0.0 0.00 0.00 0.00 81 1021.8
20260509080044 51 62 0.0 0.0 0.00 0.00 0.00 79 1021.9
20260509074653 52 63 0.0 0.0 0.00 0.00 0.00 76 1021.8
20260509073045 53 62 0.0 0.0 0.00 0.00 0.00 73 1021.9
20260509071545 54 65 0.0 1.0 0.00 0.00 0.00 72 1021.8
20260509070041 54 58 0.0 1.0 0.00 0.00 0.00 72 1021.8
20260509064532 54 56 0.0 0.0 0.00 0.00 0.00 74 1021.8
20260509063054 55 56 0.0 0.0 0.00 0.00 0.00 73 1021.8
20260509061542 55 59 0.0 1.0 0.00 0.00 0.00 71 1021.9
20260509060048 56 47 0.0 0.0 0.00 0.00 0.00 71 1021.8
20260509054527 56 48 0.0 1.0 0.00 0.00 0.00 69 1021.7
20260509053027 56 62 0.0 1.0 0.00 0.00 0.00 68 1021.7
20260509051518 56 51 0.0 1.0 0.00 0.00 0.00 68 1021.6
20260509050018 56 64 0.0 2.0 0.00 0.00 0.00 68 1021.6
20260509044502 56 97 0.0 0.0 0.00 0.00 0.00 68 1021.5
20260509043002 56 148 0.0 1.0 0.00 0.00 0.00 68 1021.4
20260509041601 56 204 0.0 0.0 0.00 0.00 0.00 67 1021.2
20260509040100 57 197 0.0 0.0 0.00 0.00 0.00 67 1021.1
20260509034557 57 198 0.0 1.0 0.00 0.00 0.00 66 1021.0
20260509034508 57 198 0.0 1.0 0.00 0.00 0.00 66 1021.0
20260509033056 57 165 0.0 0.0 0.00 0.00 0.00 66 1020.9
20260509031554 58 66 0.0 2.0 0.00 0.00 0.00 66 1020.8
20260509030106 58 134 0.0 0.0 0.00 0.00 0.00 65 1020.7
20260509024551 58 174 0.0 1.0 0.00 0.00 0.00 64 1020.7
20260509023050 59 174 0.0 2.0 0.00 0.00 0.00 62 1020.5
20260509021549 59 212 0.0 0.0 0.00 0.00 0.00 62 1020.5
20260509020054 60 148 0.0 1.0 0.00 0.00 0.00 62 1020.4